Wind_Speed
21 21 22 21 22 24 26 27 27 31 33 33 29 18 5 0 5 14 14 9 6 4 1 3 2 3 4 4 4 4 2 1 2 2 2 1 1 1 2 3 3 5 5 4 5 4 3 5 5 4 3 4 6 4 4 4 3 1 3 5 5 4 4 5 5 5 7 9 5 2 1 5 7 7 7 8 7 8 7 5 5 4 3 3 2 3 7
21 21 21 21 21 23 25 25 25 27 29 30 24 10 2 2 6 9 9 3 5 2 2 3 3 3 4 5 5 4 3 3 4 3 2 2 2 2 2 2 3 4 3 3 5 4 3 4 4 3 2 3 5 5 5 4 2 2 4 4 4 4 4 5 4 3 6 7 6 5 2 3 4 4 5 8 9 8 4 3 4 5 5 7 5 5 7
21 20 21 21 20 22 24 23 23 25 26 28 20 6 3 4 3 5 6 3 2 3 2 1 2 3 3 3 4 4 3 4 5 6 4 3 3 3 3 4 4 4 4 5 6 5 4 3 4 3 4 4 4 4 5 5 3 6 10 9 6 5 5 6 6 6 7 7 7 7 4 3 3 2 6 7 9 11 6 3 4 6 5 6 6 5 7
20 20 21 20 19 21 22 21 22 23 25 27 20 6 3 3 2 3 5 3 1 0 0 2 2 2 3 3 3 3 3 4 4 5 4 4 5 4 4 4 4 5 6 7 9 8 7 6 5 5 4 3 3 3 5 8 8 12 16 13 7 3 4 7 9 10 9 8 8 7 4 5 4 5 7 8 9 12 9 5 6 7 4 4 7 7 6
19 20 20 19 18 20 20 19 20 22 24 26 18 6 2 1 2 2 3 3 3 2 2 4 3 2 2 2 3 2 3 3 3 3 3 3 3 3 4 5 5 6 6 6 7 8 8 8 7 8 7 5 4 5 6 8 11 12 14 13 7 3 5 8 11 13 13 12 11 7 5 6 8 8 9 9 9 11 10 7 7 7 7 6 9 6 8
20 20 20 18 18 19 18 17 18 20 23 24 14 3 2 1 2 2 4 3 2 2 3 5 4 4 3 2 3 4 4 4 3 2 3 3 1 2 3 5 8 8 8 5 5 6 6 8 9 9 7 4 3 5 6 6 7 5 5 7 6 4 6 8 10 13 15 15 14 10 7 6 6 8 10 10 11 12 13 12 10 9 8 9 8 8 11
19 20 19 17 18 18 16 16 17 18 21 20 10 2 2 2 2 3 4 3 3 5 6 7 6 5 4 3 3 3 5 4 2 2 3 4 3 3 3 6 6 6 7 5 6 7 6 7 9 7 6 3 1 2 6 6 2 3 5 4 3 4 6 7 10 13 15 16 16 12 11 9 8 7 8 9 10 13 14 14 12 12 12 12 9 12 14
19 19 18 18 17 15 14 14 15 16 18 15 7 2 3 2 2 3 3 3 5 6 5 5 4 4 4 4 3 3 3 2 4 4 3 4 3 3 4 7 7 6 5 5 9 12 11 10 10 7 7 4 2 2 4 4 3 7 5 3 1 3 6 4 7 9 12 14 15 14 13 13 14 14 11 8 7 8 10 10 8 9 11 9 6 9 11
21 20 19 19 17 15 14 13 13 14 14 11 5 3 4 4 6 5 4 4 5 5 4 3 3 3 3 2 2 4 3 3 6 6 6 8 6 5 4 6 7 6 6 7 11 12 9 10 10 5 6 6 4 4 2 2 7 10 6 3 3 2 4 1 4 4 7 9 13 16 15 13 14 17 16 12 8 6 6 6 6 7 8 5 5 6 10
20 19 19 18 16 15 14 12 12 12 10 6 2 3 6 7 7 5 4 4 4 3 4 2 2 3 2 2 3 4 5 7 7 5 5 7 9 7 4 6 6 6 7 7 7 8 8 9 9 4 4 5 2 2 1 1 3 5 5 5 2 2 2 2 3 4 7 8 10 12 10 9 10 12 15 14 11 8 5 4 6 7 6 6 6 8 9
19 19 19 18 16 16 14 12 12 11 8 3 0 2 5 6 5 4 3 4 3 1 2 2 2 2 3 6 7 6 8 9 6 3 4 5 6 6 7 7 6 6 7 5 3 8 11 11 8 4 4 5 5 1 1 3 6 5 4 5 4 1 3 4 3 4 8 9 5 3 4 7 8 8 9 13 13 13 9 4 4 4 3 3 6 7 6
20 19 19 18 17 16 14 13 12 11 9 6 3 3 3 4 5 4 3 4 4 2 2 3 3 4 7 8 8 8 10 10 9 7 8 10 12 11 10 8 5 5 6 5 8 11 10 9 5 2 2 1 2 3 3 4 7 7 5 5 5 6 6 4 2 2 4 1 4 3 6 9 7 3 2 7 10 11 9 5 2 1 2 4 6 7 8
20 19 18 18 18 16 15 14 13 12 11 8 6 5 3 3 4 4 3 4 5 4 4 5 6 8 9 8 8 9 10 11 12 12 10 11 13 12 9 5 5 5 7 10 11 8 6 5 3 2 1 2 4 5 6 7 9 10 8 5 5 6 5 3 2 2 1 2 4 6 8 6 1 3 4 3 4 9 10 6 1 2 2 4 7 7 6
19 19 19 18 18 17 15 14 13 13 12 11 10 9 5 2 3 3 3 4 5 5 5 6 6 7 7 6 6 8 10 10 10 9 7 8 10 11 8 5 5 7 7 7 6 3 1 2 3 2 2 2 1 3 6 7 7 8 9 6 3 4 3 3 3 2 2 3 3 3 3 1 0 2 3 4 5 6 7 4 2 4 3 5 5 2 5
20 19 19 18 18 17 16 15 14 13 12 12 11 11 8 5 5 5 4 3 5 6 5 6 5 3 4 5 5 6 7 6 6 7 7 7 7 7 6 5 8 10 5 1 1 1 1 1 1 2 2 3 4 2 2 4 4 4 6 5 1 4 3 2 4 2 2 4 2 0 2 4 4 3 1 3 4 4 5 5 1 3 4 4 3 4 5
20 19 19 18 18 17 16 16 15 14 13 12 12 12 10 7 6 8 6 4 5 5 4 4 3 4 5 6 6 6 5 4 5 7 6 5 5 7 9 10 10 7 2 1 1 1 1 1 2 2 3 4 4 2 2 1 3 4 5 4 3 1 2 3 1 1 2 5 4 3 4 5 5 5 4 2 3 4 5 6 2 5 7 6 1 7 8
20 19 19 18 18 17 17 16 16 15 14 13 12 12 11 8 7 8 6 4 5 6 5 6 7 6 5 5 5 4 3 3 4 3 4 5 6 9 12 12 9 3 2 1 1 2 1 2 2 1 3 2 3 4 4 3 1 3 5 6 6 4 2 3 3 3 1 3 3 2 3 2 2 4 5 4 2 2 5 5 2 4 8 8 2 7 8
19 18 18 18 17 17 17 16 16 15 14 13 12 12 12 11 9 9 6 4 5 5 5 8 8 6 5 3 4 3 2 4 4 2 4 5 3 6 10 9 7 4 1 2 2 1 2 3 2 3 3 2 0 4 5 6 5 3 1 2 3 3 3 2 1 2 3 1 3 1 3 2 3 6 7 6 4 1 6 6 3 4 7 7 4 7 7
19 18 18 18 16 16 17 16 15 14 13 11 10 11 12 10 9 9 6 3 5 6 6 8 9 7 4 3 3 3 3 4 4 3 5 4 2 8 11 5 2 4 3 3 2 1 2 2 1 1 1 1 1 1 3 5 5 4 3 1 2 1 2 3 1 1 3 1 2 1 2 2 5 10 8 4 3 3 4 3 1 2 3 3 6 10 9
19 18 18 17 16 15 15 15 14 13 12 10 10 11 12 11 10 11 9 5 5 7 9 10 12 11 8 7 8 8 6 5 4 3 4 4 4 10 8 2 0 4 3 2 2 0 1 0 2 1 1 1 1 1 0 2 2 3 5 4 1 2 2 2 2 2 2 2 3 2 2 3 11 13 7 3 4 5 6 3 1 1 3 4 7 10 10
19 18 17 16 15 15 14 14 14 12 11 11 10 11 12 12 11 11 12 9 6 5 5 7 10 12 11 11 12 11 8 7 6 4 4 5 3 4 3 3 4 4 2 2 2 1 1 0 1 0 1 2 1 1 1 1 1 1 4 5 2 2 3 1 1 1 2 3 2 2 3 8 12 6 2 4 4 6 8 6 3 2 2 4 5 7 7
18 17 16 16 15 15 14 13 13 12 12 12 10 9 11 12 10 8 9 9 8 8 11 16 21 24 26 28 28 26 24 23 20 15 9 6 3 3 4 7 6 3 2 2 1 2 2 1 1 1 1 1 2 2 1 3 3 2 1 4 2 2 4 4 3 0 1 3 2 2 4 7 8 4 6 6 6 5 5 6 5 2 2 2 4 6 5
17 16 16 15 15 14 14 13 13 13 14 12 10 11 12 13 12 9 8 8 8 10 16 21 23 22 23 29 33 34 33 33 31 26 17 9 5 4 4 6 5 4 1 2 1 2 2 1 1 1 0 1 0 2 2 1 2 1 2 2 1 2 3 3 4 3 2 2 3 3 4 5 7 6 5 5 5 3 3 6 6 4 2 4 6 7 6
16 15 15 14 14 14 13 13 13 13 13 11 10 12 13 14 14 10 7 5 4 6 9 11 10 10 12 17 21 22 23 26 28 28 24 17 7 3 3 5 4 2 2 2 2 1 1 1 1 1 0 0 1 1 2 1 1 1 2 1 2 3 3 1 4 7 4 1 2 3 3 4 5 5 5 5 5 4 4 6 6 3 3 4 6 8 8
15 15 14 14 14 13 13 13 12 12 11 10 10 10 11 13 13 9 4 3 2 3 6 6 7 12 15 17 17 17 18 20 20 22 24 23 17 10 6 4 2 3 3 3 1 2 1 2 1 1 0 1 1 1 2 2 2 2 2 4 1 1 3 2 2 4 5 4 6 4 3 3 5 3 3 4 5 6 6 6 5 4 5 6 6 7 9
15 14 14 14 14 13 12 11 11 11 10 10 11 11 12 13 12 8 5 2 2 3 6 6 7 9 10 14 19 22 21 19 19 21 22 25 28 25 16 7 6 5 4 2 1 1 1 2 0 1 1 2 1 1 2 3 3 2 2 4 3 2 0 2 3 3 6 7 8 8 8 6 5 4 3 4 5 7 7 7 6 6 8 10 10 10 10
13 13 13 13 12 12 11 10 9 10 10 10 11 12 12 13 14 12 10 5 2 3 5 5 6 10 13 18 26 26 19 16 18 19 20 22 27 26 17 9 6 5 4 3 2 1 2 1 1 2 2 1 2 2 2 3 2 1 2 4 5 3 2 2 5 7 6 6 8 8 8 7 1 0 5 5 4 8 10 9 9 9 8 9 11 10 11
11 11 11 11 10 10 10 9 9 9 10 10 11 11 13 16 18 18 17 13 8 3 4 5 7 12 14 16 20 20 15 13 15 16 17 18 21 20 13 8 6 4 3 3 3 1 1 1 3 3 2 1 1 1 2 3 2 3 3 6 6 3 3 1 3 5 4 4 4 3 5 7 4 3 6 5 6 11 13 10 9 9 7 9 10 10 10
10 10 10 10 10 9 8 8 8 8 8 9 9 10 13 15 16 17 19 19 14 7 4 6 7 7 8 12 17 18 15 12 12 15 14 13 15 14 10 7 6 5 3 2 2 2 2 3 2 2 2 3 3 2 1 2 2 3 4 7 6 4 4 4 2 2 0 3 0 1 6 8 4 4 6 5 6 11 11 8 7 7 7 8 10 10 9
10 10 9 9 9 8 7 7 7 7 8 7 6 6 7 6 5 6 10 12 12 8 4 5 5 4 5 9 12 13 11 8 8 10 10 9 9 9 8 6 5 4 2 1 2 2 2 2 3 3 3 2 3 3 1 1 2 2 6 9 8 6 7 8 6 5 4 5 3 4 9 8 4 5 7 6 5 8 8 6 6 7 7 8 9 8 8
9 8 8 7 8 8 7 8 8 7 7 4 2 1 1 1 3 8 12 6 3 3 2 4 5 5 5 5 6 8 9 7 5 4 6 7 5 5 7 6 3 2 3 2 2 1 1 2 3 3 3 2 2 3 2 2 2 3 8 11 8 7 8 8 7 7 7 5 4 9 11 7 4 6 8 9 8 7 7 6 6 9 10 10 9 8 8
7 7 7 7 7 7 7 8 7 7 7 6 6 6 8 9 8 5 9 6 9 5 1 3 4 3 3 4 5 7 7 5 3 2 3 3 3 3 4 4 2 2 3 2 1 1 2 3 2 2 3 3 3 3 3 3 2 3 7 8 6 6 8 8 8 8 7 6 5 10 12 9 7 8 7 6 6 7 7 6 6 9 11 10 10 10 9
7 7 7 7 8 8 8 8 8 8 10 11 14 17 18 18 16 13 12 12 9 3 3 3 3 3 3 4 6 5 4 3 1 1 1 2 3 3 2 2 2 1 2 2 1 2 2 2 0 1 3 3 3 4 3 4 4 5 6 6 5 6 9 8 8 8 8 8 7 7 8 7 7 6 5 6 7 7 6 5 5 8 11 11 10 9 8
7 7 7 8 8 8 9 9 9 10 10 10 12 14 12 10 9 9 10 10 5 2 3 2 1 3 4 3 4 3 3 3 2 2 2 2 2 4 2 1 2 1 2 2 1 2 1 1 2 3 3 4 4 4 3 5 7 7 6 7 6 6 8 9 9 8 8 8 7 6 5 5 5 5 6 8 8 6 5 6 8 10 11 9 8 6 6
7 7 8 8 9 10 11 10 9 9 7 7 8 8 9 8 7 6 5 8 4 0 2 2 1 3 3 3 4 4 1 1 2 3 3 1 1 3 2 2 1 2 3 2 0 1 1 1 3 3 3 3 4 4 3 4 6 7 7 7 6 3 6 8 6 4 4 3 4 4 2 2 4 5 6 7 6 5 6 8 8 9 8 6 5 5 6
7 8 8 10 10 10 9 7 6 5 4 5 8 10 10 9 9 7 4 7 6 2 1 1 2 2 2 2 4 5 4 3 1 1 2 1 1 1 2 3 2 2 1 2 1 1 2 2 2 3 3 3 3 1 2 3 5 5 5 5 5 4 3 5 4 3 3 1 3 3 1 3 6 6 5 4 4 5 7 8 8 7 7 5 5 5 4
7 9 10 10 8 5 4 3 4 4 4 9 12 12 9 6 5 4 3 5 6 5 2 0 3 3 1 2 4 3 4 3 1 1 1 2 2 1 2 3 2 1 2 3 2 2 2 3 3 5 4 3 2 0 1 2 4 4 3 3 3 3 3 1 3 6 4 1 5 5 5 7 8 6 5 6 7 7 8 8 6 5 5 4 3 3 2
9 9 9 7 4 1 1 2 2 5 11 13 10 7 3 1 0 1 1 2 3 4 3 1 3 3 2 3 4 3 3 3 1 2 0 2 2 1 1 2 1 1 3 2 0 2 3 3 4 5 4 2 2 2 3 3 3 3 3 3 2 2 3 3 2 4 3 3 6 6 5 7 7 6 6 7 6 5 5 5 4 3 4 3 3 3 4
8 7 5 3 2 1 2 4 8 11 11 7 2 1 1 1 1 1 1 1 2 2 2 2 3 3 3 4 4 4 4 3 2 2 1 1 1 1 1 1 1 2 3 2 1 2 4 3 2 3 3 2 2 3 3 3 3 4 3 3 3 2 2 3 3 4 6 5 3 2 2 4 4 3 3 3 3 3 3 3 3 3 3 4 5 5 5
6 5 2 1 2 5 9 12 12 9 4 0 1 0 0 0 1 1 1 0 1 2 2 3 3 2 3 4 4 4 3 2 2 1 1 1 1 2 2 1 1 2 3 2 2 2 3 3 2 3 3 2 2 3 3 3 4 4 3 3 3 3 2 2 3 4 5 5 4 3 3 3 4 3 3 2 3 3 3 3 4 4 4 5 6 6 5
5 4 3 4 8 13 16 13 8 2 1 1 1 1 0 1 1 1 1 1 2 2 2 1 0 1 3 5 4 4 3 2 2 2 1 0 1 2 3 1 1 3 3 1 2 2 3 3 3 2 2 2 2 2 3 4 4 4 4 4 4 4 3 3 4 4 4 4 4 3 3 3 3 3 2 1 2 3 3 3 4 5 5 6 6 7 8
9 9 10 12 14 13 10 6 2 1 1 1 1 0 1 1 1 1 1 1 2 1 1 1 0 2 4 4 3 3 3 2 1 1 1 1 1 2 3 1 2 3 3 1 1 2 2 3 3 2 2 2 2 3 3 3 3 4 5 5 4 4 4 4 5 6 6 6 4 3 3 4 4 4 4 4 4 4 4 5 5 6 7 8 8 9 11
12 10 9 9 7 4 2 1 1 1 1 1 1 2 2 2 1 1 1 1 2 2 1 0 1 2 2 1 2 3 2 1 1 1 1 1 1 2 3 2 2 2 2 1 1 2 2 4 4 3 2 2 3 4 4 4 4 4 5 5 5 6 7 6 6 6 7 8 7 6 6 6 7 8 9 9 7 6 6 7 7 8 9 10 11 12 13
8 3 1 1 2 1 1 1 1 1 2 2 1 2 2 2 2 2 2 2 2 2 2 2 1 2 2 2 2 1 2 1 1 1 1 1 2 3 3 1 0 0 1 2 2 2 3 3 2 1 2 3 3 3 4 4 5 5 5 6 7 7 7 7 6 6 7 8 8 8 8 8 8 9 11 11 8 5 5 6 8 9 11 11 12 14 15
3 1 2 2 2 1 1 1 1 1 2 1 1 1 0 2 2 2 2 2 2 2 4 3 2 1 2 2 1 1 1 1 1 2 1 1 2 3 2 0 1 1 2 2 2 2 3 2 1 2 2 3 3 4 4 4 4 4 4 5 7 7 6 6 6 5 5 5 6 6 6 6 6 6 8 9 9 7 6 7 8 10 11 11 12 14 15
1 1 2 2 2 1 1 1 2 1 1 1 2 1 2 3 3 2 2 2 2 3 4 4 3 2 3 2 2 2 2 2 2 2 1 2 3 2 1 1 1 2 2 3 3 3 3 2 0 2 2 3 3 4 4 4 4 4 4 4 5 6 5 5 4 4 4 4 4 5 5 5 5 5 6 9 10 9 9 9 9 9 9 10 11 13 15
1 1 1 2 2 2 1 1 1 2 2 2 3 3 3 3 3 3 3 3 3 4 4 4 3 3 1 2 2 1 2 2 2 1 1 3 2 1 0 1 2 2 2 3 3 2 2 2 1 1 2 3 4 4 4 4 4 4 4 4 4 4 5 4 4 4 4 4 4 4 4 5 6 7 7 8 9 10 11 11 10 9 8 9 10 11 12
1 1 1 2 1 2 2 2 2 3 3 3 3 4 3 2 3 3 3 3 2 3 4 3 2 1 1 2 2 1 1 2 2 2 1 2 2 1 2 2 2 2 3 3 2 2 2 2 1 0 2 3 3 3 3 4 4 4 4 4 4 4 4 4 4 4 4 4 4 4 5 6 7 8 7 6 7 10 12 11 9 8 8 8 9 10 10
1 1 1 1 1 1 2 2 1 2 3 3 3 4 3 2 3 5 4 2 2 3 4 3 0 1 1 1 2 2 2 2 2 1 2 3 3 2 2 2 3 3 3 1 1 2 2 1 0 1 1 2 2 2 2 3 3 3 3 3 3 4 3 3 4 5 5 5 4 4 5 6 7 8 8 6 7 9 9 8 7 8 8 8 9 10 10
2 1 1 1 2 2 2 1 1 4 5 5 4 4 4 5 5 5 4 4 4 2 1 1 2 2 1 2 3 3 2 1 1 2 3 3 2 1 2 3 3 2 1 1 2 2 2 1 0 1 1 2 2 2 2 3 3 3 3 3 4 4 4 4 5 6 6 5 4 4 5 6 6 7 6 5 5 7 7 6 7 8 8 8 8 9 10
1 1 0 1 1 2 3 2 2 3 4 5 5 4 4 4 5 6 5 5 3 3 3 2 2 2 3 3 3 2 1 1 2 2 2 2 1 1 2 3 1 1 1 0 1 1 1 0 1 1 2 3 3 3 3 3 3 3 4 4 5 6 6 6 6 6 6 6 5 4 5 5 5 5 4 4 5 7 7 8 9 11 10 9 8 8 9
2 2 2 2 2 1 2 2 1 2 3 3 3 4 3 4 5 7 6 5 3 3 2 1 1 3 3 2 1 1 1 2 2 2 2 2 2 2 2 2 1 2 1 0 1 1 1 1 1 1 2 3 3 3 3 3 3 4 4 5 6 6 6 6 7 8 7 6 5 5 5 6 5 4 3 4 5 5 5 7 10 12 12 9 8 8 8
Wind_Direction
315 318 320 323 327 330 333 339 343 348 354 355 351 342 331 316 272 296 303 263 254 344 298 266 282 222 253 278 269 287 299 285 286 295 318 259 220 243 219 209 209 223 230 216 213 227 228 223 214 207 236 228 211 240 326 323 301 280 225 232 209 165 153 186 218 250 253 257 274 311 219 170 183 211 194 177 189 190 189 190 176 188 192 142 143 242 264
314 316 318 320 325 327 330 337 342 348 354 354 348 338 314 303 270 295 321 269 194 188 227 258 259 248 274 282 282 289 274 268 273 262 245 213 219 251 240 230 219 221 235 236 231 234 237 247 246 228 239 237 219 233 269 272 267 226 216 210 206 212 201 184 189 216 238 255 278 284 251 171 194 216 185 185 186 173 157 107 144 213 211 171 179 229 249
313 315 315 317 322 326 328 334 340 345 349 350 348 329 284 314 256 260 304 314 173 185 196 243 279 297 310 285 284 289 264 258 252 238 225 214 215 236 250 241 233 241 265 272 263 242 218 247 283 252 227 250 246 232 256 266 238 225 229 216 197 207 205 190 191 199 206 216 232 237 214 191 226 201 172 183 171 162 160 120 159 225 226 175 180 212 247
311 312 313 317 321 323 325 330 337 339 342 347 343 313 279 323 283 277 307 329 23 298 52 54 22 335 344 312 269 244 251 276 254 220 222 231 218 226 246 234 233 251 251 260 269 256 230 230 258 260 245 260 256 244 288 286 260 250 247 232 199 175 201 188 188 204 209 206 218 222 179 168 209 206 184 182 174 172 168 146 176 197 174 183 211 199 218
308 309 311 315 317 318 321 328 335 335 339 345 339 293 230 302 264 317 332 320 350 355 21 45 30 332 335 307 278 269 270 285 277 223 224 239 218 228 242 215 211 228 224 235 253 246 237 235 244 259 254 251 278 292 297 278 264 266 256 232 195 163 225 202 191 209 215 208 212 210 184 191 202 200 196 192 182 173 171 189 199 160 144 228 249 199 194
307 308 308 311 311 315 320 326 331 332 337 344 339 267 208 265 265 354 352 304 311 343 344 354 332 297 291 270 271 293 280 269 280 269 290 319 231 209 259 235 223 227 225 235 245 231 232 238 239 245 242 244 306 310 302 277 264 292 282 228 178 167 233 218 198 217 223 219 219 202 187 217 211 193 199 200 190 180 186 206 199 156 172 229 225 180 197
302 303 304 306 307 311 318 322 327 330 337 346 347 284 280 301 287 346 358 314 297 304 306 310 299 288 294 273 246 275 274 266 296 314 324 323 260 211 261 260 244 244 244 249 251 236 222 227 233 228 220 220 67 335 307 290 258 22 351 279 183 172 236 224 203 222 230 226 226 208 197 222 233 218 208 199 197 194 198 211 198 180 206 225 192 184 209
294 296 299 300 302 306 312 318 322 325 338 354 2 326 337 345 305 327 346 311 290 289 286 287 293 297 288 263 261 315 292 279 339 326 268 271 274 205 222 260 280 286 267 246 243 238 224 224 232 210 199 216 153 160 261 275 325 351 344 309 292 198 232 215 179 216 236 229 227 221 210 215 230 237 229 203 194 201 214 228 206 188 220 230 176 184 226
294 296 300 301 303 302 303 310 316 319 338 4 14 340 344 326 296 293 304 297 286 286 288 289 296 288 262 242 334 342 319 327 338 311 237 227 242 226 229 284 306 301 275 253 249 248 235 236 246 224 204 226 194 169 206 318 332 329 325 328 331 230 244 309 131 200 244 229 223 227 222 219 232 240 237 225 206 195 211 218 190 189 211 204 147 183 236
293 295 299 301 303 299 296 301 305 308 328 2 13 319 331 325 307 295 288 284 284 294 301 295 269 263 272 2 355 318 298 314 325 304 261 240 236 237 273 311 317 305 288 271 266 285 287 270 272 276 272 292 293 160 145 330 292 294 303 306 295 175 233 291 164 205 253 236 216 219 217 221 239 238 231 228 219 207 215 207 188 188 175 163 184 216 236
289 290 294 297 298 295 292 293 294 295 304 325 265 286 316 325 316 307 286 270 264 279 300 287 266 292 345 356 344 316 300 307 305 276 292 291 270 279 304 304 296 282 265 247 277 304 289 267 260 253 257 300 314 325 34 306 265 252 261 283 295 310 284 262 185 200 251 245 210 175 192 212 236 243 222 219 219 214 213 206 196 200 176 191 226 247 261
287 288 290 293 293 291 288 286 286 284 281 278 256 257 305 320 306 293 274 271 275 284 291 274 262 296 318 320 313 301 292 294 290 273 273 282 284 289 293 283 260 245 258 297 332 325 295 259 238 211 192 213 320 355 8 308 285 277 254 244 272 288 281 265 202 189 244 241 109 154 227 229 242 292 238 211 210 194 169 118 100 222 284 267 256 262 263
287 288 288 289 289 288 287 282 279 277 274 266 247 246 281 315 293 278 270 276 277 272 277 275 267 276 286 286 287 289 285 285 287 279 267 267 276 282 282 261 237 257 310 331 334 333 309 281 264 199 159 56 28 352 322 307 305 299 280 245 231 250 257 239 198 202 241 92 133 202 236 244 257 35 52 84 131 139 127 98 56 255 258 239 239 259 270
286 286 287 287 286 284 284 281 275 272 271 262 252 253 262 257 254 271 283 272 267 275 287 285 276 274 273 272 286 298 297 296 293 283 268 263 271 276 274 267 275 296 323 336 325 309 270 321 315 222 172 56 1 296 312 320 310 278 269 271 219 189 224 253 240 219 172 158 184 226 241 246 64 71 78 80 100 139 143 135 221 259 261 228 214 297 332
286 285 284 285 285 282 280 281 277 267 264 263 255 250 254 251 245 254 265 268 276 285 274 249 250 305 324 312 317 316 309 308 308 300 287 269 265 272 281 300 305 303 309 335 311 277 176 137 243 230 189 171 205 220 348 328 301 248 252 282 242 164 166 221 233 232 112 115 118 143 180 210 236 247 206 111 120 182 161 121 132 309 315 257 178 88 37
285 283 281 281 282 280 278 280 278 267 259 257 252 250 257 259 247 248 258 269 268 268 262 247 267 327 323 301 302 299 289 295 313 311 301 293 301 304 308 311 302 288 273 155 134 90 104 151 180 229 218 184 183 146 102 289 316 312 297 326 5 116 131 113 145 257 126 131 149 186 190 205 237 264 279 63 113 187 138 95 22 328 340 312 187 98 84
284 282 281 281 279 278 277 276 276 271 259 250 248 250 252 252 252 255 259 263 255 257 280 295 299 309 300 287 292 280 260 293 313 306 303 314 321 316 317 321 313 284 144 95 358 62 137 172 130 192 255 236 162 142 142 154 173 292 302 337 359 350 359 43 28 323 276 141 143 199 211 206 258 289 304 334 344 191 142 129 244 319 340 324 358 96 102
284 281 281 280 278 278 277 274 274 273 262 250 247 249 253 259 264 258 255 277 278 264 272 281 278 274 265 268 284 272 276 312 310 297 297 291 298 320 320 320 320 323 30 65 34 50 206 214 154 162 231 287 165 151 158 162 172 198 253 336 343 347 0 19 43 321 316 81 125 200 240 232 285 311 311 320 342 86 148 172 224 332 343 330 22 70 83
283 281 280 279 277 277 275 273 274 271 263 252 243 247 257 261 252 241 237 260 269 259 271 285 281 276 272 275 279 271 290 304 290 294 302 281 331 340 319 282 258 323 342 59 67 120 193 242 291 143 158 307 315 211 158 157 165 158 131 116 320 6 15 343 1 353 329 24 106 294 233 213 336 334 324 334 55 111 159 184 261 19 16 9 49 59 58
284 282 280 279 276 274 274 275 272 268 264 255 241 246 259 260 253 248 243 245 267 271 272 269 265 266 270 266 264 267 277 280 256 243 265 268 345 355 334 262 345 326 327 46 39 42 135 285 304 18 79 243 255 278 243 139 159 154 137 144 207 147 123 319 305 302 331 26 37 18 211 296 335 337 333 23 89 146 163 126 83 133 111 83 74 70 65
286 283 281 280 277 274 274 275 272 269 267 261 249 249 259 265 266 257 247 250 272 279 276 280 279 278 277 270 264 263 262 256 248 253 275 278 320 357 317 307 342 325 314 17 355 315 40 306 263 60 29 305 303 272 242 142 183 213 136 132 154 148 143 180 245 302 9 51 30 328 277 303 320 338 76 80 89 143 150 130 132 178 135 92 74 66 68
290 288 286 282 278 275 274 273 273 269 265 263 254 246 255 267 270 261 257 263 265 264 278 291 292 285 279 275 271 265 259 258 256 256 264 281 272 222 260 298 306 272 283 20 0 309 343 349 326 48 55 309 339 315 257 148 164 236 130 129 163 201 180 155 121 79 224 137 162 270 302 314 324 14 89 94 90 109 127 124 118 108 99 96 80 64 55
293 292 291 286 281 279 276 273 272 269 266 263 251 242 252 266 269 272 282 279 268 271 278 280 282 280 272 268 267 264 259 256 254 248 239 240 260 245 240 265 267 252 288 55 153 278 318 342 61 59 119 210 18 340 320 136 166 212 146 136 121 121 136 114 109 144 180 73 38 346 346 343 345 13 57 87 88 80 93 99 95 91 101 99 93 84 64
293 291 289 287 282 279 276 274 274 273 269 263 252 248 256 265 269 275 284 273 269 290 281 266 261 261 261 268 277 274 260 252 251 248 235 221 225 275 248 228 236 293 321 287 208 200 343 305 264 73 21 288 68 32 320 324 326 314 114 75 48 101 102 67 145 153 148 85 332 328 345 331 333 9 48 66 73 76 80 84 90 104 95 76 82 90 80
293 290 288 285 282 279 277 276 275 274 270 265 259 253 251 259 264 259 246 256 292 303 294 281 259 258 270 281 285 278 267 259 255 248 231 213 208 222 240 244 288 349 325 300 1 68 23 292 286 65 9 289 57 349 285 280 301 298 92 68 25 155 118 90 163 147 118 145 190 181 100 23 333 349 48 50 54 59 56 66 89 101 86 72 68 76 78
294 292 291 289 284 280 279 278 276 275 271 265 264 257 251 258 262 241 217 264 311 263 269 283 277 279 298 299 286 279 276 268 255 242 229 218 215 220 233 267 319 331 329 328 6 121 209 256 281 83 257 242 118 66 278 279 303 308 83 65 352 287 123 114 162 130 98 126 174 167 118 73 348 339 41 42 53 68 62 60 63 65 69 70 62 57 62
292 289 290 291 287 281 280 280 279 277 272 267 268 266 259 260 261 250 240 243 246 255 264 267 286 307 311 297 290 289 284 265 247 238 231 222 216 217 226 250 283 302 319 325 305 183 164 237 243 201 222 238 106 117 249 271 315 23 54 28 2 344 352 97 143 145 135 155 192 185 134 117 185 141 62 48 64 81 73 60 54 53 61 71 71 66 63
293 291 292 293 291 287 283 282 282 281 278 274 274 276 273 267 264 261 255 244 227 254 294 280 288 305 304 294 295 300 293 267 242 226 221 215 207 205 212 224 235 262 289 289 284 280 166 237 233 194 183 195 110 114 274 297 23 52 13 355 1 352 314 323 140 159 164 162 206 221 117 118 150 124 87 81 81 80 75 66 61 60 62 72 76 73 67
295 295 293 291 292 290 285 286 287 285 283 284 288 293 289 281 271 263 256 244 230 233 285 284 273 284 295 296 300 303 298 276 239 216 208 199 192 192 200 208 210 217 229 237 253 262 250 248 247 226 200 186 150 115 316 329 53 53 357 349 356 342 327 351 6 285 350 92 124 304 90 100 108 89 89 97 97 92 91 88 81 76 71 74 79 77 73
298 296 291 290 291 290 290 293 291 289 291 299 311 310 298 294 279 236 220 220 221 224 263 294 284 283 292 291 291 293 291 275 241 216 194 176 179 188 190 190 195 198 206 248 248 228 245 274 281 278 261 215 135 119 141 149 103 47 3 0 5 6 10 17 9 350 23 55 51 65 84 93 104 83 63 44 53 82 92 96 95 88 76 70 72 73 71
301 298 294 294 293 292 295 294 291 291 290 292 328 346 243 3 67 130 143 154 269 274 258 273 281 291 289 267 260 271 271 257 237 207 173 164 172 178 175 179 191 181 179 213 247 226 237 272 282 296 308 332 92 109 107 95 91 18 1 3 9 19 26 22 13 17 29 31 52 72 70 59 70 78 49 18 17 45 57 56 59 66 67 62 58 58 56
306 305 305 302 300 301 299 296 298 297 282 263 257 255 258 282 294 205 184 248 306 313 248 272 289 297 291 272 261 261 248 219 193 150 145 165 168 157 166 180 188 181 182 192 274 283 231 232 253 313 336 354 48 78 61 57 67 18 3 1 2 28 40 27 13 22 20 356 24 68 66 49 53 75 68 36 28 43 55 54 49 60 67 63 56 52 48
311 308 303 300 302 303 298 296 297 294 286 278 276 275 274 279 282 266 247 264 283 265 219 278 306 280 271 295 290 260 209 175 167 132 156 200 172 146 166 180 152 162 203 197 219 254 234 220 243 12 356 358 44 78 59 29 25 27 21 10 7 38 51 37 18 26 30 17 26 68 83 72 60 61 69 69 57 50 62 71 60 59 59 52 46 40 30
305 306 303 301 304 301 297 296 291 289 293 289 282 288 297 293 280 266 248 244 248 246 237 249 306 280 275 314 313 268 163 131 135 159 187 235 163 141 159 154 106 159 224 202 219 276 291 352 35 37 7 356 29 61 48 18 19 30 37 23 13 46 67 52 29 25 32 35 42 54 73 86 73 38 38 56 55 43 47 57 58 59 55 45 36 26 16
308 311 308 305 305 298 293 291 283 281 290 277 267 297 334 333 314 301 241 208 190 28 274 226 246 288 304 328 310 286 237 174 207 185 185 212 150 142 139 104 105 233 223 166 109 327 348 49 65 49 8 6 38 40 2 357 15 32 48 31 3 28 88 81 61 24 1 25 60 52 40 103 95 65 53 54 46 42 51 53 55 63 66 52 28 17 20
316 316 311 309 307 299 293 285 259 237 245 268 289 317 331 320 313 316 255 210 205 216 273 290 281 285 327 330 299 303 326 322 267 156 136 141 152 151 107 103 143 241 236 90 74 16 6 23 70 59 23 31 60 33 306 350 18 30 52 35 351 348 73 103 138 193 250 235 109 111 119 89 78 75 78 69 48 51 57 50 46 57 65 50 19 14 19
324 318 314 313 309 294 279 249 201 206 270 301 311 318 314 289 288 300 250 216 215 209 189 302 271 247 217 242 260 297 324 308 287 70 106 162 161 154 94 106 175 240 41 50 63 74 36 17 68 79 64 60 86 342 322 39 38 26 38 31 351 347 19 25 210 210 214 95 65 57 47 50 48 43 47 45 36 39 48 44 40 55 63 47 18 12 356
330 323 317 315 317 297 235 206 225 282 300 305 309 313 307 249 140 253 218 196 209 204 173 190 247 237 197 223 248 281 298 288 343 52 145 177 146 124 96 111 156 136 75 61 78 100 63 31 55 83 88 81 66 28 15 36 44 36 39 32 5 357 356 330 259 202 171 72 47 36 37 48 43 29 29 36 32 33 43 38 29 44 53 36 6 355 350
340 337 323 306 298 261 254 284 301 303 301 296 279 253 288 60 74 261 238 198 208 211 186 212 237 223 197 233 266 277 262 272 350 22 224 203 145 157 157 118 93 89 90 84 6 66 77 62 49 73 81 57 18 0 1 20 31 29 27 17 5 2 0 5 33 86 102 100 101 109 90 83 77 58 44 47 42 38 40 32 22 23 16 0 0 6 2
345 343 327 264 270 287 297 308 314 313 310 23 81 2 333 103 179 222 226 227 232 216 199 208 219 197 189 221 271 284 263 269 323 319 234 222 145 138 125 101 92 85 82 61 5 51 91 95 62 60 71 45 354 345 3 24 29 21 9 5 9 7 16 46 60 86 109 121 135 140 119 119 126 113 99 104 89 58 30 16 20 23 13 3 2 0 345
342 338 317 296 298 302 308 315 323 331 103 56 6 346 271 253 249 222 203 257 263 233 194 172 2 259 213 210 230 257 261 262 249 208 180 351 16 80 80 56 59 77 73 29 348 34 81 90 74 66 63 24 359 9 19 23 23 15 6 8 10 1 11 56 68 75 87 90 88 78 69 79 93 88 85 120 104 74 41 21 20 21 19 8 351 340 338
315 302 296 297 298 300 307 323 4 65 49 25 15 328 259 257 265 255 229 247 262 253 173 123 210 250 234 207 210 240 254 265 266 165 89 26 11 78 80 32 44 80 86 61 357 34 67 82 80 79 68 41 32 38 34 21 11 6 2 5 9 3 9 33 39 37 44 53 53 41 36 37 41 40 32 37 55 57 45 35 24 9 4 2 354 350 351
307 293 289 296 301 307 328 339 1 70 61 49 22 354 337 320 319 314 288 287 315 329 336 2 293 289 287 257 239 257 271 300 327 20 65 23 355 69 59 30 43 83 95 90 73 59 62 79 91 105 102 67 41 36 31 15 5 9 9 9 11 12 16 26 26 19 23 30 31 26 25 24 25 31 37 44 51 49 37 31 24 10 4 3 0 358 357
312 286 270 311 315 1 24 329 306 61 48 26 29 36 10 339 331 332 328 329 336 335 327 328 335 321 304 271 249 286 327 343 354 19 29 1 24 57 61 43 25 103 66 74 85 64 47 63 82 90 73 59 35 23 22 14 11 13 10 6 10 15 18 22 25 20 18 20 19 19 22 21 21 27 34 40 45 43 30 21 15 10 7 2 356 354 356
343 20 35 16 339 339 45 7 339 32 38 0 336 104 189 256 262 268 279 284 285 288 298 304 297 262 274 284 319 17 347 335 6 23 20 16 36 50 58 262 261 67 64 71 84 80 69 66 19 348 20 31 13 7 18 18 11 6 2 4 10 15 15 18 22 23 18 12 11 15 19 18 16 17 19 22 27 31 27 15 6 2 0 357 351 349 352
39 19 51 56 5 342 43 28 358 15 24 306 286 253 223 234 245 252 257 269 276 282 296 311 317 304 307 336 16 6 339 2 32 34 59 75 58 41 12 355 30 62 83 84 80 82 89 97 325 320 349 8 7 7 13 13 8 13 23 18 6 2 5 12 18 17 12 10 15 21 19 15 13 10 5 7 13 19 17 10 5 358 354 351 347 344 346
28 354 74 80 17 351 23 34 330 295 272 269 273 265 253 260 277 275 249 247 272 290 299 303 290 266 278 47 53 323 307 5 41 8 29 77 79 34 9 55 47 52 76 82 85 100 123 141 172 281 340 0 8 10 14 17 15 20 26 20 5 1 7 12 12 9 5 7 17 21 14 8 11 11 6 3 6 9 11 11 8 1 352 344 341 341 343
355 342 62 73 39 348 344 347 324 300 279 260 261 271 266 262 285 289 264 231 231 260 277 284 281 270 17 64 99 191 284 14 35 354 5 74 87 47 27 46 48 46 53 63 92 119 120 125 143 21 354 359 10 22 23 18 11 13 18 15 4 357 359 3 4 0 356 0 11 12 6 4 6 6 7 4 360 3 10 16 13 4 354 343 338 340 343
9 6 62 77 95 245 249 239 266 306 304 288 280 295 309 316 308 306 306 301 282 256 247 247 176 64 7 4 82 82 22 17 28 355 5 39 49 29 22 39 46 50 50 48 92 90 78 62 37 31 8 0 24 36 22 355 351 3 7 355 344 338 338 346 352 352 354 0 3 355 359 9 11 7 7 6 356 358 10 21 20 10 0 348 340 341 347
14 46 70 40 21 341 306 306 13 353 347 349 344 335 341 341 333 332 339 332 323 328 343 353 26 51 19 11 44 49 26 20 59 46 33 40 43 29 39 51 53 58 73 99 98 82 61 30 71 62 14 349 12 20 356 338 344 352 343 337 345 350 349 348 349 349 353 358 354 346 355 13 16 9 5 356 342 348 6 22 20 11 6 359 352 351 353
358 40 17 321 347 338 328 337 343 326 329 336 329 320 328 335 327 324 328 329 337 13 29 8 358 31 36 36 41 31 354 25 49 45 41 47 33 25 51 64 73 229 243 43 62 62 20 353 71 50 2 348 353 352 330 317 319 326 336 351 359 0 358 356 353 348 346 348 347 341 344 355 5 11 12 359 352 3 13 13 6 5 7 7 5 2 358
24 7 315 291 274 283 318 333 296 267 284 295 289 292 318 328 314 311 324 348 22 43 30 6 45 59 53 48 41 17 25 46 45 35 40 45 33 51 84 99 223 235 222 333 344 331 328 331 328 309 308 320 327 328 323 320 321 331 345 350 349 348 350 349 346 342 338 335 334 335 336 340 352 17 27 15 9 8 356 342 345 353 359 3 4 3 1
Height
805 803 801 800 797 795 793 791 788 785 781 776 774 772 770 769 758 741 736 738 738 743 743 736 734 733 728 723 721 718 715 714 713 711 711 712 712 712 711 711 713 713 712 712 711 710 709 705 701 699 698 693 688 682 679 682 687 692 700 696 688 691 700 713 718 708 700 694 689 692 692 693 701 703 703 709 713 715 723 733 737 740 751 754 757 762 736
803 801 800 798 797 795 792 791 789 786 784 781 778 775 772 770 763 747 737 736 737 742 742 737 734 730 726 724 722 718 715 715 715 714 713 712 712 714 712 709 710 709 707 708 707 707 709 705 697 695 697 690 682 679 678 682 688 691 694 691 690 696 701 709 722 725 718 713 708 704 700 700 703 701 700 702 706 710 716 724 732 737 740 740 748 756 731
801 800 799 797 795 794 792 790 788 786 785 783 780 778 774 769 762 750 740 736 736 738 737 736 736 733 731 730 725 721 717 713 712 712 712 709 709 713 711 707 707 706 706 708 706 703 707 706 698 693 694 688 679 677 677 680 685 684 682 679 682 693 697 700 719 735 737 733 725 714 707 704 701 698 698 700 703 710 716 725 736 740 738 736 736 737 721
800 798 797 795 794 793 791 790 788 786 784 782 780 778 776 771 761 751 744 738 736 736 734 737 740 738 738 735 727 724 722 714 708 709 710 708 706 709 708 705 707 708 708 711 710 704 702 703 699 694 693 688 680 675 675 677 679 677 675 674 678 687 689 690 701 713 718 717 710 702 699 700 701 698 696 698 702 705 710 721 730 732 736 737 726 718 714
798 796 795 794 792 792 790 788 787 785 783 781 779 776 775 774 765 757 753 747 740 738 737 740 743 741 741 738 729 725 724 718 712 708 707 706 705 707 706 704 707 708 708 711 711 704 701 700 698 695 692 687 680 674 673 675 674 671 670 669 675 686 689 687 688 692 694 694 692 694 695 693 694 694 693 694 697 702 709 717 717 718 731 735 720 712 714
795 794 793 792 791 790 789 787 786 784 782 780 778 775 773 771 764 758 759 756 748 745 743 744 745 742 741 738 731 727 725 722 718 713 708 706 705 707 706 703 703 703 703 707 708 703 703 702 697 693 690 686 683 678 674 673 669 667 668 665 669 683 688 683 684 686 684 683 684 689 693 690 687 688 689 690 693 699 705 708 706 708 717 717 709 710 711
794 793 791 790 789 788 787 786 784 783 782 779 777 775 772 769 765 760 760 760 756 752 749 748 746 742 739 736 731 729 727 724 721 718 714 711 707 708 710 705 701 700 700 705 707 704 703 701 694 689 687 685 685 685 681 674 667 667 671 666 664 677 684 678 681 684 680 679 681 683 688 691 688 687 686 687 691 695 695 696 698 700 700 696 697 704 700
791 790 789 788 787 787 785 785 784 782 781 779 777 777 774 773 772 767 765 764 759 754 751 748 745 741 738 736 732 730 729 727 726 723 720 718 710 707 709 705 700 701 701 704 705 696 691 691 685 682 684 683 683 687 687 680 672 671 674 670 666 675 682 676 677 686 684 677 677 680 685 689 689 686 684 686 691 696 696 695 697 700 698 693 697 706 698
789 788 787 786 785 785 784 783 783 781 780 779 778 778 777 776 774 772 771 767 758 753 750 747 746 743 739 736 734 733 731 729 731 726 717 714 711 705 705 705 701 700 700 700 697 687 683 683 678 675 678 677 674 677 679 681 683 680 678 676 672 676 681 677 680 692 688 676 676 679 679 684 690 687 683 685 690 694 694 692 694 697 697 697 704 709 697
787 785 785 784 783 783 782 782 781 780 780 779 779 778 776 776 774 771 771 767 758 755 753 749 747 743 738 737 737 737 733 730 732 729 714 706 706 702 702 706 705 703 700 696 691 686 683 680 676 674 675 672 670 670 673 680 688 688 685 682 677 676 680 679 683 693 688 675 675 677 681 695 700 686 676 678 682 685 686 686 687 688 691 696 700 695 682
784 783 783 782 781 781 780 780 779 778 778 778 778 778 776 776 775 772 771 767 759 756 756 752 748 743 739 740 741 738 735 732 731 731 721 709 704 702 703 707 708 704 696 688 684 683 680 675 673 672 672 673 673 672 673 678 682 684 686 685 680 677 681 681 683 688 686 676 674 681 696 708 695 670 662 667 671 676 682 684 685 687 688 688 687 682 678
781 781 780 779 779 778 777 777 777 777 777 776 776 777 776 776 776 773 771 767 759 756 757 755 751 747 744 744 744 740 736 733 729 729 727 717 708 704 703 705 706 699 686 680 679 678 674 669 669 670 671 673 673 672 674 679 678 676 678 684 684 681 682 684 682 683 684 680 683 699 709 697 674 661 661 662 662 666 677 686 689 689 689 686 681 679 678
778 778 778 777 776 776 775 775 775 774 775 775 775 775 774 775 775 773 770 768 762 756 756 754 750 748 747 745 744 740 735 731 727 724 723 718 709 704 701 699 698 690 681 679 681 681 677 673 671 672 671 671 672 672 674 679 679 676 674 677 681 682 683 682 681 683 687 688 693 702 697 677 665 666 665 663 665 669 677 689 693 689 690 688 681 678 678
776 775 775 774 774 773 773 772 772 772 773 773 773 773 773 773 773 772 770 768 762 755 754 753 748 746 746 743 741 739 734 729 726 721 717 714 709 703 698 693 690 685 682 683 683 683 682 680 678 678 677 678 682 684 683 682 681 680 678 677 677 680 681 680 680 683 687 690 693 690 683 678 675 672 668 668 673 674 676 686 691 687 688 688 680 677 679
773 772 772 771 771 770 770 770 770 770 770 771 771 771 771 771 771 771 769 767 763 757 753 751 747 745 745 743 741 741 737 732 727 721 714 710 706 699 694 690 687 683 682 685 685 683 680 681 686 688 687 688 691 694 695 691 682 677 678 679 677 677 679 680 683 688 688 690 694 692 691 690 682 673 671 670 670 672 674 680 687 686 684 684 679 675 676
770 769 769 769 768 768 768 767 767 767 768 768 768 768 769 769 769 769 768 766 764 757 748 745 744 745 746 743 741 741 739 734 731 725 716 710 705 699 693 689 686 683 682 684 685 683 680 683 688 690 688 687 688 693 699 699 692 683 677 675 674 674 678 679 682 688 690 686 688 693 693 687 678 673 671 667 667 672 675 683 690 686 680 681 677 671 672
767 766 766 766 765 765 765 765 765 765 765 766 766 766 767 767 767 767 766 764 762 754 745 742 744 746 746 744 741 739 737 734 732 729 723 717 711 704 697 690 684 680 681 683 684 682 682 685 689 690 687 682 680 689 699 702 700 695 685 679 679 678 678 680 683 691 694 687 685 690 688 679 674 673 670 665 665 670 679 692 696 687 680 682 677 671 672
764 764 763 763 763 762 762 762 763 762 762 763 764 764 764 764 765 765 764 763 760 752 744 742 744 744 744 743 741 738 736 734 733 733 729 722 716 712 707 699 691 683 681 685 690 690 687 685 687 688 685 678 676 684 692 693 695 697 692 690 694 691 686 687 690 695 698 693 689 692 687 677 673 673 669 665 665 671 684 696 695 687 685 686 681 677 676
761 761 761 760 760 760 760 760 760 760 760 761 762 762 761 761 762 763 762 762 760 752 744 741 742 741 740 740 740 737 736 736 735 736 734 725 716 714 709 701 696 692 688 689 696 698 694 690 689 687 684 681 680 683 685 684 686 691 692 693 699 700 698 696 694 697 702 699 695 694 687 675 672 673 667 662 670 684 694 696 691 688 689 687 683 682 681
759 758 758 758 758 758 758 757 758 758 758 759 759 759 759 759 760 760 760 759 757 750 743 740 741 740 738 739 739 737 737 737 735 735 735 727 719 718 713 703 702 702 696 694 698 699 697 696 696 694 690 688 685 683 684 685 683 683 687 692 694 697 702 705 703 701 703 702 701 702 696 680 672 673 669 667 676 689 693 691 689 689 689 688 685 682 682
757 756 755 756 756 756 756 755 756 756 756 756 757 757 757 756 757 758 757 757 757 750 742 738 738 738 737 736 736 735 736 736 733 732 732 726 724 726 721 711 712 711 702 699 701 699 696 698 699 697 694 691 688 686 687 689 686 679 679 686 689 691 696 704 707 706 707 709 712 710 702 688 678 675 675 676 678 680 682 685 689 689 687 687 685 683 684
754 754 754 754 753 753 754 754 754 754 754 754 755 755 755 754 754 755 755 755 754 749 741 738 737 735 734 733 732 731 730 729 728 730 731 728 725 725 722 717 718 713 703 701 704 702 699 700 699 698 698 695 693 692 690 689 689 684 679 681 686 688 686 689 701 709 708 707 708 702 695 690 683 678 677 679 679 678 679 682 684 685 685 684 684 686 687
753 752 752 752 752 752 752 752 752 752 752 752 753 753 753 752 752 754 754 752 750 746 740 737 735 731 727 724 723 723 723 723 723 724 727 728 726 723 721 719 716 708 701 703 707 705 704 703 700 700 701 698 697 698 694 689 689 689 684 680 681 684 681 682 695 705 703 699 698 695 693 693 689 683 681 680 680 681 681 680 682 685 685 683 683 685 686
751 751 751 751 750 750 750 750 750 751 750 751 751 751 751 752 751 752 752 751 750 746 738 734 731 727 721 718 717 717 717 717 717 717 719 724 725 722 718 713 708 704 702 703 704 703 704 704 701 701 700 697 697 701 699 694 692 689 686 685 684 682 682 685 692 697 699 702 703 698 696 696 692 688 685 682 681 682 681 682 685 686 686 685 684 683 684
750 749 749 749 749 749 749 749 749 749 749 749 749 749 750 750 749 751 751 750 750 749 743 735 726 720 717 715 714 714 713 711 712 712 713 716 717 716 712 706 704 704 703 701 701 702 704 703 701 701 701 696 696 701 701 697 693 687 687 693 692 685 682 688 693 693 693 699 702 698 695 695 693 690 687 684 683 683 682 684 686 687 687 687 686 684 684
748 748 748 747 747 747 748 748 748 748 748 748 748 748 748 747 748 749 750 749 750 749 747 737 723 715 716 715 709 707 708 707 707 707 708 709 709 709 708 705 705 704 703 701 701 702 705 705 702 703 702 696 695 700 701 697 692 689 690 694 693 688 685 689 695 697 695 697 699 695 693 695 694 689 686 685 683 683 685 687 687 686 685 686 687 687 686
747 747 747 746 746 746 746 746 746 746 746 746 746 746 746 746 746 747 747 749 750 747 744 736 723 715 714 710 703 701 702 702 702 702 703 704 705 706 707 708 708 706 705 704 702 701 704 706 702 700 699 695 693 698 701 697 692 692 695 695 693 692 691 689 693 700 700 696 693 687 685 691 694 687 684 684 684 684 687 689 690 690 689 689 690 691 690
745 745 746 745 745 745 745 745 745 745 745 745 744 745 744 743 743 744 744 746 748 746 743 737 727 719 714 705 698 697 697 696 697 698 698 699 701 704 706 707 707 708 707 705 704 703 703 702 697 694 694 693 694 698 700 697 695 698 702 701 698 699 698 692 693 698 694 688 686 682 679 685 689 685 682 683 683 684 688 691 693 694 692 690 690 691 692
744 744 745 744 744 744 744 744 744 744 744 744 743 743 742 739 739 740 740 742 745 745 743 738 729 721 714 703 695 693 693 692 693 694 695 696 699 701 703 704 706 707 706 704 704 704 701 696 691 688 686 686 690 698 701 700 702 707 709 705 701 701 699 694 694 695 689 684 685 683 680 685 689 687 685 685 684 686 690 693 694 694 692 691 690 691 691
743 744 743 743 743 743 743 743 744 743 743 743 743 742 741 737 736 736 738 741 744 744 742 739 730 720 712 704 696 691 690 690 690 690 691 694 696 697 699 701 703 703 703 704 703 702 700 696 690 685 681 679 684 695 702 702 706 710 709 705 703 701 699 697 698 697 693 689 688 686 685 688 691 689 689 690 689 688 691 693 694 694 693 692 692 692 693
743 743 743 743 743 742 742 743 743 742 742 743 743 743 742 739 737 737 738 741 743 742 741 738 731 721 712 703 695 691 688 687 687 688 689 690 692 694 695 697 699 701 702 702 701 699 699 696 690 685 681 678 682 693 700 703 709 713 710 706 705 704 702 701 700 698 698 697 694 690 689 691 690 690 693 695 694 693 694 695 695 694 693 694 695 696 696
743 742 742 742 742 742 742 742 741 742 742 742 742 741 740 738 739 739 739 740 741 741 741 737 731 725 716 704 693 688 686 686 685 686 687 689 690 692 694 695 697 697 697 699 700 698 696 693 689 687 685 682 685 696 705 710 716 719 715 710 708 707 705 704 702 700 701 701 697 695 696 697 695 695 697 698 698 697 698 699 698 696 695 696 697 698 700
743 742 742 742 741 741 741 741 741 741 740 740 739 738 736 737 738 738 738 739 739 739 739 737 734 730 719 705 693 686 683 684 685 686 687 688 689 691 693 694 695 695 695 697 699 696 692 690 688 688 689 689 691 702 714 719 720 720 717 715 713 710 708 709 708 705 703 701 701 704 707 706 703 702 701 700 700 700 701 701 700 697 697 698 700 702 703
742 741 741 741 740 740 741 740 740 740 739 738 737 735 734 735 735 734 736 738 738 737 737 736 736 731 719 707 696 686 681 683 685 686 687 687 687 689 692 694 695 695 695 695 696 693 691 690 689 691 696 700 704 712 722 725 722 719 718 718 716 714 714 716 716 714 711 709 709 711 712 711 709 708 705 703 703 705 704 702 700 699 700 703 705 706 706
741 741 740 740 740 740 739 739 738 739 738 737 736 733 733 734 733 733 734 734 736 737 736 733 733 730 722 714 703 688 680 682 684 684 685 686 686 687 690 693 696 697 694 693 694 695 693 691 694 702 709 713 719 727 730 727 723 721 721 720 719 717 718 719 721 722 721 717 715 715 716 714 712 711 709 709 708 708 706 704 703 703 704 707 709 709 709
741 740 740 739 739 738 737 737 737 737 737 736 733 732 732 732 732 732 732 732 734 736 734 732 731 729 726 723 713 694 683 683 684 683 683 685 686 686 687 691 695 694 691 691 696 699 697 694 700 712 719 722 728 733 731 727 725 724 722 722 722 720 719 719 721 724 724 721 718 717 717 714 712 712 712 712 711 709 707 706 707 707 708 711 712 712 713
740 739 739 738 737 737 736 736 735 735 734 733 731 730 730 731 730 731 731 731 731 731 731 733 732 727 725 726 717 700 689 687 684 682 682 684 686 685 686 689 692 692 694 697 699 699 698 698 706 720 728 729 730 730 726 724 726 725 723 724 725 723 722 721 721 723 723 720 718 717 715 713 713 713 712 711 711 710 709 710 711 711 712 713 714 714 714
740 739 738 737 737 736 736 734 734 733 732 731 730 730 730 729 730 731 731 730 729 728 729 731 729 724 723 722 713 700 692 689 686 684 683 683 684 685 686 688 689 692 699 703 699 695 700 707 713 723 729 729 727 726 725 724 724 724 724 725 725 725 724 723 721 721 720 718 718 719 717 716 716 716 715 714 714 713 713 713 713 713 713 714 714 714 713
739 738 737 737 736 736 734 733 732 732 731 730 730 730 729 730 731 730 729 728 728 727 727 728 724 720 719 717 709 698 691 689 689 687 684 681 682 685 687 688 687 691 702 706 699 696 707 718 720 724 729 730 727 726 725 723 722 723 724 725 725 725 725 724 721 720 718 719 721 722 720 719 719 719 718 718 717 716 716 715 714 714 714 714 714 714 713
739 738 738 737 736 734 732 731 731 730 730 730 731 730 730 731 730 728 727 727 727 724 722 720 717 714 714 714 709 699 691 688 689 689 685 682 680 681 685 688 688 693 705 709 702 699 708 719 723 727 731 731 729 727 725 724 723 724 724 724 724 725 724 723 723 721 721 722 723 723 721 721 721 720 719 718 717 717 716 716 715 716 716 715 714 714 714
740 739 739 738 736 733 731 730 730 730 729 731 732 732 732 730 726 724 724 724 720 716 713 712 711 710 709 710 709 702 692 688 686 685 684 682 679 681 686 689 690 698 710 712 706 703 709 719 727 731 732 731 729 728 726 725 724 725 724 724 724 724 723 723 722 721 721 721 721 721 721 721 720 719 719 718 717 716 716 716 716 716 715 715 714 714 713
741 741 740 738 735 733 731 730 730 730 730 732 732 731 730 726 722 720 720 717 711 708 708 710 711 708 703 701 702 697 690 686 683 682 683 683 683 686 690 691 694 704 714 715 712 710 714 722 730 733 732 731 729 728 727 726 726 725 725 724 723 723 722 721 719 719 719 719 719 719 719 718 718 718 717 716 715 716 716 715 715 715 714 714 714 713 712
740 739 739 738 736 733 732 731 731 731 732 732 731 729 728 724 720 718 717 713 709 708 708 709 709 706 700 698 698 693 688 686 684 683 685 687 687 691 696 701 705 710 713 714 717 719 720 726 733 734 732 731 729 728 727 727 726 725 725 723 722 722 720 719 719 718 718 718 718 718 717 717 717 717 716 716 716 716 716 715 716 715 714 713 712 711 711
738 738 738 738 736 734 732 731 730 731 733 733 732 732 733 729 725 724 722 717 714 713 710 709 711 710 704 700 697 693 691 690 688 686 688 690 692 699 707 712 713 714 714 717 722 725 727 731 735 733 731 731 731 729 729 728 727 726 725 724 723 722 722 721 721 720 719 719 719 718 718 718 717 717 717 716 716 716 716 716 715 714 714 713 712 711 710
738 738 738 736 734 733 733 733 732 733 736 736 734 736 737 734 729 727 724 720 717 716 713 711 712 711 706 699 697 697 696 694 691 693 696 697 701 709 716 716 714 716 719 722 725 729 732 736 737 735 733 733 732 730 730 729 728 728 727 726 725 725 724 724 723 722 722 722 721 721 720 720 719 719 718 717 717 717 716 716 715 715 714 713 712 711 710
740 741 740 739 736 735 736 738 738 738 738 737 735 735 734 731 728 726 723 720 717 716 713 711 711 711 706 701 700 702 701 697 696 698 701 703 708 716 719 717 717 719 722 725 730 735 738 739 738 736 735 734 733 732 731 731 730 730 729 729 729 728 727 726 725 724 724 724 723 723 722 721 721 720 719 718 717 717 716 716 716 715 715 714 713 712 711
742 743 742 741 740 739 740 741 743 742 740 738 736 733 731 729 727 725 722 720 717 714 712 711 711 710 707 706 707 708 706 703 702 703 704 707 714 719 719 719 722 724 725 729 736 739 740 739 738 736 735 735 734 734 733 732 732 732 731 731 731 729 728 727 726 725 725 725 724 723 723 722 721 720 720 719 718 718 717 717 717 716 716 716 715 714 713
745 745 744 744 746 746 744 744 744 743 739 737 734 731 729 728 727 722 718 717 716 714 713 711 708 705 705 707 710 710 708 705 706 707 707 710 715 719 721 724 728 730 730 734 738 738 738 739 738 737 736 737 737 736 735 734 734 733 733 732 731 730 729 728 727 726 726 725 724 724 723 722 721 720 720 719 719 718 718 718 718 717 717 717 716 716 715
747 746 746 747 749 748 745 745 745 741 736 733 732 729 726 726 724 718 714 714 713 712 711 708 704 703 705 707 707 708 710 711 714 715 714 716 721 725 727 730 733 735 736 738 739 738 737 738 738 738 738 738 737 736 736 736 735 734 733 732 731 730 729 728 727 726 726 725 725 724 723 722 722 721 720 720 720 719 719 719 719 719 718 717 716 716 715
748 748 747 748 748 746 743 743 743 739 734 732 732 729 727 725 722 716 714 714 712 709 707 707 706 707 708 708 707 710 714 718 720 722 724 726 729 730 730 733 736 738 737 738 738 738 738 738 739 739 739 738 737 737 736 735 734 734 733 732 731 730 728 727 727 726 725 725 724 724 723 722 722 721 721 721 721 720 720 720 720 719 718 718 716 715 714
750 749 749 749 748 747 746 745 744 742 739 737 735 732 730 728 724 719 716 715 711 708 709 712 713 711 711 714 716 718 719 721 725 729 731 733 734 733 734 737 739 738 737 737 738 738 738 738 738 738 738 737 736 736 735 735 734 733 732 731 731 730 729 728 727 726 725 724 724 723 723 722 722 722 721 721 721 720 720 719 719 719 718 717 716 715 714
751 750 750 749 748 748 747 746 745 744 742 740 737 735 732 729 725 721 718 715 712 712 716 719 718 715 718 723 726 725 724 728 732 734 734 735 736 737 737 738 739 738 737 737 738 738 738 738 738 737 737 736 735 735 735 734 733 732 731 731 731 730 729 728 727 725 725 724 723 722 722 722 721 721 721 721 720 720 720 719 719 718 717 717 716 715 714